| time (UTC) | temp F | wind direction | speed knots | gust knots | rain 1hr in | rain 24hr in | rain mn in | humidity % | barometer mb |
| 20260507212607 | 58 | 296 | 0.0 | 2.6 | 0.00 | 0.00 | 0.00 | 59 | 1017.5 |
| 20260507211626 | 58 | 295 | 0.9 | 5.2 | 0.01 | 0.38 | 0.38 | 58 | 1017.4 |
| 20260507211303 | 58 | 257 | 2.6 | 5.2 | 0.01 | 0.38 | 0.38 | 58 | 1017.4 |
| 20260507210626 | 58 | 266 | 1.7 | 7.8 | 0.02 | 0.38 | 0.38 | 58 | 1017.3 |
| 20260507210139 | 58 | 286 | 1.7 | 5.2 | 0.02 | 0.38 | 0.38 | 58 | 1017.3 |
| 20260507205721 | 59 | 283 | 0.9 | 5.2 | 0.00 | 0.35 | 0.38 | 58 | 1017.2 |
| 20260507205130 | 59 | 285 | 1.7 | 5.2 | 0.00 | 0.35 | 0.38 | 58 | 1017.2 |
| 20260507204601 | 59 | 286 | 2.6 | 4.3 | 0.00 | 0.00 | 0.00 | 58 | 1017.2 |
| 20260507204252 | 59 | 278 | 1.7 | 4.3 | 0.01 | 0.35 | 0.38 | 58 | 1017.3 |
| 20260507203756 | 59 | 286 | 2.6 | 5.2 | 0.01 | 0.35 | 0.38 | 58 | 1017.2 |
| 20260507203233 | 59 | 286 | 2.6 | 5.2 | 0.01 | 0.35 | 0.37 | 58 | 1017.1 |
| 20260507202745 | 59 | 289 | 0.9 | 4.3 | 0.01 | 0.35 | 0.37 | 58 | 1017.2 |
| 20260507202239 | 59 | 279 | 0.9 | 4.3 | 0.01 | 0.35 | 0.37 | 58 | 1017.1 |
| 20260507201701 | 59 | 306 | 0.0 | 4.3 | 0.01 | 0.35 | 0.37 | 58 | 1017.0 |
| 20260507201215 | 59 | 307 | 1.7 | 4.3 | 0.01 | 0.35 | 0.37 | 58 | 1017.0 |
| 20260507200722 | 59 | 298 | 1.7 | 2.6 | 0.01 | 0.35 | 0.35 | 58 | 1016.9 |
| 20260507200222 | 60 | 283 | 0.9 | 2.6 | 0.01 | 0.35 | 0.35 | 58 | 1016.9 |
| 20260507195736 | 60 | 298 | 0.9 | 2.6 | 0.01 | 0.34 | 0.35 | 57 | 1016.8 |
| 20260507195722 | 60 | 282 | 0.0 | 2.6 | 0.00 | 0.34 | 0.35 | 57 | 1016.9 |
| 20260507195206 | 60 | 309 | 0.0 | 2.6 | 0.01 | 0.34 | 0.34 | 56 | 1016.8 |
| 20260507194219 | 60 | 316 | 0.0 | 1.7 | 0.01 | 0.34 | 0.34 | 56 | 1016.8 |
| 20260507193727 | 61 | 316 | 0.0 | 1.7 | 0.01 | 0.34 | 0.34 | 55 | 1016.8 |
| 20260507193648 | 61 | 327 | 0.9 | 1.7 | 0.01 | 0.34 | 0.34 | 54 | 1016.7 |
| 20260507192739 | 61 | 306 | 0.0 | 1.7 | 0.01 | 0.34 | 0.34 | 54 | 1016.7 |
| 20260507192139 | 61 | 289 | 0.0 | 1.7 | 0.02 | 0.34 | 0.34 | 54 | 1016.6 |
| 20260507191631 | 62 | 292 | 0.0 | 1.7 | 0.02 | 0.34 | 0.34 | 54 | 1016.7 |
| 20260507191610 | 62 | 292 | 0.0 | 1.7 | 0.02 | 0.34 | 0.34 | 54 | 1016.6 |
| 20260507190700 | 62 | 296 | 0.0 | 1.7 | 0.02 | 0.34 | 0.34 | 54 | 1016.6 |
| 20260507190255 | 62 | 289 | 0.0 | 1.7 | 0.04 | 0.34 | 0.34 | 53 | 1016.5 |
| 20260507190211 | 62 | 298 | 0.0 | 1.7 | 0.00 | 0.31 | 0.34 | 53 | 1016.5 |
| 20260507185723 | 63 | 289 | 0.0 | 3.5 | 0.00 | 0.31 | 0.33 | 52 | 1016.4 |
| 20260507185500 | 63 | 288 | 0.0 | 3.5 | 0.00 | 0.00 | 0.00 | 52 | 1016.3 |
| 20260507184118 | 64 | 298 | 0.0 | 2.6 | 0.00 | 0.00 | 0.00 | 51 | 1016.3 |
| 20260507183744 | 64 | 307 | 0.9 | 1.7 | 0.01 | 0.31 | 0.33 | 51 | 1016.3 |
| 20260507183237 | 65 | 313 | 0.9 | 1.7 | 0.01 | 0.31 | 0.33 | 50 | 1016.3 |
| 20260507182709 | 65 | 247 | 0.0 | 2.6 | 0.02 | 0.31 | 0.33 | 50 | 1016.3 |
| 20260507182232 | 66 | 303 | 0.0 | 2.6 | 0.02 | 0.31 | 0.32 | 50 | 1016.1 |
| 20260507182201 | 66 | 245 | 0.0 | 2.6 | 0.02 | 0.31 | 0.32 | 50 | 1016.2 |
| 20260507181128 | 66 | 305 | 0.9 | 2.6 | 0.02 | 0.31 | 0.32 | 49 | 1016.1 |
| 20260507180753 | 67 | 292 | 1.7 | 2.6 | 0.04 | 0.31 | 0.32 | 49 | 1016.1 |
| 20260507180243 | 67 | 298 | 0.9 | 1.7 | 0.04 | 0.31 | 0.31 | 49 | 1016.1 |
| 20260507175708 | 66 | 298 | 0.9 | 1.7 | 0.00 | 0.27 | 0.31 | 49 | 1016.2 |
| 20260507175241 | 66 | 299 | 0.0 | 2.6 | 0.00 | 0.27 | 0.31 | 50 | 1016.1 |
| 20260507174758 | 66 | 290 | 1.7 | 2.6 | 0.01 | 0.27 | 0.31 | 49 | 1016.0 |
| 20260507174719 | 66 | 289 | 0.0 | 2.6 | 0.01 | 0.27 | 0.30 | 49 | 1015.9 |
| 20260507173649 | 66 | 283 | 0.9 | 3.5 | 0.01 | 0.27 | 0.30 | 48 | 1015.9 |
| 20260507173143 | 66 | 266 | 1.7 | 3.5 | 0.01 | 0.27 | 0.30 | 48 | 1015.9 |
| 20260507172710 | 66 | 288 | 0.9 | 3.5 | 0.01 | 0.27 | 0.28 | 49 | 1015.9 |
| 20260507172152 | 66 | 302 | 1.7 | 3.5 | 0.00 | 0.00 | 0.00 | 47 | 1015.9 |
| 20260507171806 | 66 | 282 | 1.7 | 3.5 | 0.02 | 0.27 | 0.28 | 46 | 1015.9 |
| 20260507171047 | 67 | 293 | 0.0 | 4.3 | 0.00 | 0.00 | 0.00 | 46 | 1015.9 |
| 20260507170628 | 68 | 289 | 0.9 | 4.3 | 0.02 | 0.27 | 0.27 | 46 | 1015.9 |
| 20260507170156 | 68 | 272 | 1.7 | 3.5 | 0.02 | 0.27 | 0.27 | 46 | 1015.8 |
| 20260507165754 | 68 | 250 | 0.9 | 2.6 | 0.00 | 0.24 | 0.27 | 46 | 1015.8 |
| 20260507165258 | 68 | 282 | 1.7 | 2.6 | 0.00 | 0.24 | 0.27 | 47 | 1015.9 |
| 20260507164756 | 68 | 272 | 0.0 | 3.5 | 0.00 | 0.24 | 0.26 | 46 | 1015.7 |
| 20260507164606 | 68 | 286 | 0.9 | 3.5 | 0.00 | 0.24 | 0.26 | 46 | 1015.8 |
| 20260507163659 | 68 | 293 | 1.7 | 2.6 | 0.00 | 0.24 | 0.26 | 45 | 1015.8 |
| 20260507163223 | 67 | 286 | 0.9 | 2.6 | 0.00 | 0.24 | 0.26 | 44 | 1015.7 |
| 20260507162658 | 68 | 289 | 1.7 | 4.3 | 0.00 | 0.24 | 0.26 | 44 | 1015.8 |
| 20260507162144 | 68 | 285 | 1.7 | 3.5 | 0.01 | 0.24 | 0.26 | 45 | 1015.8 |
| 20260507161634 | 69 | 292 | 1.7 | 6.1 | 0.01 | 0.24 | 0.25 | 43 | 1015.8 |
| 20260507161246 | 69 | 240 | 1.7 | 6.1 | 0.01 | 0.24 | 0.25 | 43 | 1015.7 |
| 20260507160632 | 69 | 258 | 0.9 | 5.2 | 0.01 | 0.24 | 0.25 | 44 | 1015.7 |
| 20260507160206 | 69 | 231 | 2.6 | 4.3 | 0.01 | 0.24 | 0.25 | 42 | 1015.8 |
| 20260507155752 | 69 | 241 | 2.6 | 5.2 | 0.01 | 0.22 | 0.24 | 44 | 1015.7 |
| 20260507155717 | 68 | 243 | 0.9 | 6.1 | 0.01 | 0.22 | 0.24 | 43 | 1015.8 |
| 20260507155130 | 68 | 235 | 4.3 | 9.6 | 0.01 | 0.22 | 0.24 | 43 | 1015.8 |
| 20260507154222 | 68 | 228 | 1.7 | 9.6 | 0.01 | 0.22 | 0.24 | 46 | 1015.9 |
| 20260507153644 | 68 | 244 | 4.3 | 5.2 | 0.02 | 0.22 | 0.24 | 45 | 1015.8 |
| 20260507153636 | 67 | 248 | 0.9 | 7.8 | 0.02 | 0.22 | 0.24 | 46 | 1015.8 |
| 20260507152651 | 68 | 241 | 2.6 | 7.8 | 0.02 | 0.22 | 0.24 | 44 | 1015.8 |
| 20260507152201 | 68 | 237 | 2.6 | 6.1 | 0.02 | 0.22 | 0.22 | 46 | 1015.9 |
| 20260507151637 | 68 | 219 | 1.7 | 6.1 | 0.02 | 0.22 | 0.22 | 41 | 1015.8 |
| 20260507151131 | 68 | 231 | 1.7 | 4.3 | 0.04 | 0.22 | 0.22 | 44 | 1016.0 |
| 20260507150801 | 68 | 289 | 1.7 | 4.3 | 0.04 | 0.22 | 0.22 | 45 | 1016.0 |
| 20260507150130 | 68 | 237 | 1.7 | 4.3 | 0.04 | 0.22 | 0.22 | 43 | 1016.0 |
| 20260507145635 | 69 | 250 | 1.7 | 4.3 | 0.01 | 0.19 | 0.21 | 43 | 1016.1 |
| 20260507145150 | 69 | 324 | 2.6 | 7.8 | 0.01 | 0.19 | 0.21 | 42 | 1016.1 |
| 20260507144703 | 69 | 245 | 1.7 | 7.8 | 0.01 | 0.19 | 0.21 | 41 | 1016.1 |
| 20260507144155 | 69 | 259 | 1.7 | 8.7 | 0.02 | 0.19 | 0.20 | 42 | 1016.2 |
| 20260507144113 | 69 | 234 | 1.7 | 7.8 | 0.00 | 0.00 | 0.00 | 41 | 1016.1 |
| 20260507143301 | 69 | 241 | 4.3 | 10.4 | 0.02 | 0.19 | 0.20 | 41 | 1016.2 |
| 20260507142655 | 69 | 293 | 2.6 | 8.7 | 0.04 | 0.19 | 0.20 | 43 | 1016.2 |
| 20260507142641 | 69 | 169 | 2.6 | 10.4 | 0.02 | 0.19 | 0.20 | 41 | 1016.2 |
| 20260507141625 | 69 | 288 | 1.7 | 9.6 | 0.04 | 0.19 | 0.20 | 44 | 1016.2 |
| 20260507141148 | 69 | 197 | 5.2 | 9.6 | 0.04 | 0.19 | 0.19 | 42 | 1016.3 |
| 20260507140741 | 69 | 243 | 4.3 | 9.6 | 0.04 | 0.19 | 0.19 | 41 | 1016.3 |
| 20260507140255 | 69 | 245 | 3.5 | 8.7 | 0.04 | 0.19 | 0.19 | 43 | 1016.4 |
| 20260507140200 | 69 | 243 | 2.6 | 8.7 | 0.00 | 0.14 | 0.18 | 43 | 1016.5 |
| 20260507135141 | 69 | 230 | 2.6 | 7.8 | 0.00 | 0.14 | 0.18 | 41 | 1016.5 |
| 20260507134735 | 69 | 199 | 4.3 | 7.8 | 0.00 | 0.14 | 0.18 | 43 | 1016.6 |
| 20260507134250 | 69 | 269 | 1.7 | 5.2 | 0.01 | 0.14 | 0.18 | 44 | 1016.6 |
| 20260507133752 | 69 | 286 | 3.5 | 9.6 | 0.01 | 0.14 | 0.17 | 45 | 1016.6 |
| 20260507133213 | 68 | 281 | 1.7 | 9.6 | 0.01 | 0.14 | 0.17 | 46 | 1016.7 |
| 20260507132728 | 68 | 227 | 2.6 | 8.7 | 0.02 | 0.14 | 0.17 | 43 | 1016.6 |
| 20260507132140 | 68 | 224 | 3.5 | 6.1 | 0.02 | 0.14 | 0.15 | 46 | 1016.7 |
| 20260507131746 | 68 | 234 | 5.2 | 8.7 | 0.02 | 0.14 | 0.15 | 43 | 1016.7 |
| 20260507131709 | 67 | 281 | 3.5 | 10.4 | 0.02 | 0.14 | 0.15 | 47 | 1016.7 |
| 20260507130740 | 68 | 223 | 4.3 | 10.4 | 0.02 | 0.14 | 0.15 | 46 | 1016.7 |
| 20260507130233 | 67 | 238 | 2.6 | 7.8 | 0.02 | 0.14 | 0.14 | 50 | 1016.6 |
| 20260507125706 | 67 | 240 | 2.6 | 10.4 | 0.01 | 0.12 | 0.14 | 48 | 1016.7 |
| 20260507125653 | 67 | 281 | 1.7 | 10.4 | 0.01 | 0.12 | 0.14 | 48 | 1016.7 |
| 20260507125148 | 66 | 238 | 6.1 | 11.3 | 0.02 | 0.12 | 0.13 | 46 | 1016.8 |
| 20260507124050 | 66 | 235 | 7.8 | 11.3 | 0.00 | 0.00 | 0.00 | 48 | 1016.8 |
| 20260507123644 | 66 | 213 | 7.0 | 10.4 | 0.02 | 0.12 | 0.13 | 48 | 1016.9 |
| 20260507123209 | 67 | 255 | 5.2 | 10.4 | 0.02 | 0.12 | 0.13 | 49 | 1016.8 |
| 20260507122726 | 66 | 245 | 5.2 | 10.4 | 0.04 | 0.12 | 0.12 | 50 | 1016.8 |
| 20260507122256 | 66 | 245 | 3.5 | 10.4 | 0.04 | 0.12 | 0.12 | 50 | 1016.9 |
| 20260507121704 | 66 | 226 | 5.2 | 8.7 | 0.04 | 0.12 | 0.12 | 52 | 1016.9 |
| 20260507121133 | 66 | 238 | 1.7 | 8.7 | 0.05 | 0.12 | 0.12 | 49 | 1017.0 |
| 20260507120736 | 66 | 226 | 2.6 | 8.7 | 0.05 | 0.12 | 0.12 | 50 | 1017.1 |
| 20260507120219 | 66 | 303 | 3.5 | 6.1 | 0.05 | 0.12 | 0.12 | 52 | 1017.1 |
| 20260507120134 | 66 | 216 | 3.5 | 7.8 | 0.00 | 0.07 | 0.11 | 53 | 1017.0 |
| 20260507115138 | 65 | 237 | 1.7 | 8.7 | 0.00 | 0.07 | 0.11 | 52 | 1017.1 |
| 20260507114800 | 65 | 275 | 3.5 | 8.7 | 0.00 | 0.07 | 0.09 | 53 | 1017.1 |
| 20260507114134 | 65 | 324 | 3.5 | 9.6 | 0.00 | 0.07 | 0.09 | 54 | 1017.1 |
| 20260507113740 | 65 | 237 | 3.5 | 10.4 | 0.01 | 0.07 | 0.09 | 54 | 1017.3 |
| 20260507113140 | 64 | 219 | 7.8 | 10.4 | 0.01 | 0.07 | 0.09 | 53 | 1017.3 |
| 20260507112738 | 65 | 240 | 5.2 | 9.6 | 0.01 | 0.07 | 0.08 | 56 | 1017.3 |
| 20260507112228 | 64 | 247 | 5.2 | 9.6 | 0.01 | 0.07 | 0.08 | 55 | 1017.4 |
| 20260507111729 | 64 | 295 | 4.3 | 7.8 | 0.01 | 0.07 | 0.08 | 54 | 1017.5 |
| 20260507111134 | 64 | 241 | 2.6 | 6.1 | 0.01 | 0.07 | 0.07 | 57 | 1017.6 |
| 20260507110728 | 64 | 286 | 4.3 | 8.7 | 0.01 | 0.07 | 0.07 | 56 | 1017.7 |
| 20260507110208 | 64 | 224 | 7.0 | 5.2 | 0.01 | 0.07 | 0.07 | 56 | 1017.7 |
| 20260507105737 | 63 | 274 | 3.5 | 7.8 | 0.00 | 0.06 | 0.07 | 57 | 1017.8 |
| 20260507105632 | 63 | 295 | 2.6 | 7.8 | 0.00 | 0.06 | 0.07 | 57 | 1017.8 |
| 20260507104714 | 63 | 272 | 3.5 | 7.8 | 0.00 | 0.06 | 0.07 | 55 | 1017.8 |
| 20260507104235 | 63 | 248 | 3.5 | 7.8 | 0.00 | 0.06 | 0.07 | 57 | 1017.7 |
| 20260507103653 | 62 | 312 | 2.6 | 7.8 | 0.00 | 0.06 | 0.06 | 58 | 1017.8 |
| 20260507103245 | 62 | 271 | 0.9 | 8.7 | 0.00 | 0.06 | 0.06 | 58 | 1017.9 |
| 20260507102720 | 62 | 243 | 4.3 | 9.6 | 0.00 | 0.06 | 0.06 | 59 | 1017.9 |
| 20260507102238 | 61 | 255 | 4.3 | 8.7 | 0.00 | 0.06 | 0.06 | 58 | 1017.9 |
| 20260507102156 | 61 | 248 | 1.7 | 9.6 | 0.00 | 0.06 | 0.06 | 59 | 1017.8 |
| 20260507101145 | 61 | 338 | 5.2 | 8.7 | 0.01 | 0.06 | 0.06 | 59 | 1017.9 |
| 20260507100645 | 60 | 314 | 3.5 | 8.7 | 0.01 | 0.06 | 0.06 | 59 | 1018.0 |
| 20260507100157 | 59 | 286 | 3.5 | 9.6 | 0.00 | 0.05 | 0.06 | 60 | 1018.0 |
| 20260507100145 | 60 | 264 | 2.6 | 9.6 | 0.01 | 0.06 | 0.06 | 60 | 1018.0 |
| 20260507095659 | 59 | 296 | 3.5 | 8.7 | 0.00 | 0.05 | 0.06 | 60 | 1018.1 |
| 20260507094653 | 59 | 295 | 2.6 | 9.6 | 0.00 | 0.05 | 0.06 | 61 | 1018.1 |
| 20260507094127 | 58 | 300 | 5.2 | 9.6 | 0.00 | 0.00 | 0.00 | 61 | 1018.1 |
| 20260507093746 | 58 | 303 | 4.3 | 8.7 | 0.00 | 0.05 | 0.06 | 61 | 1018.2 |
| 20260507093738 | 58 | 286 | 2.6 | 8.7 | 0.00 | 0.05 | 0.06 | 61 | 1018.2 |
| 20260507093212 | 57 | 309 | 3.5 | 8.7 | 0.01 | 0.05 | 0.06 | 61 | 1018.2 |
| 20260507092232 | 58 | 207 | 4.3 | 8.7 | 0.01 | 0.05 | 0.06 | 62 | 1018.1 |
| 20260507092148 | 57 | 289 | 3.5 | 8.7 | 0.01 | 0.05 | 0.06 | 63 | 1018.1 |
| 20260507091220 | 57 | 269 | 2.6 | 6.1 | 0.01 | 0.05 | 0.05 | 63 | 1018.1 |
| 20260507090740 | 56 | 233 | 2.6 | 8.7 | 0.01 | 0.05 | 0.05 | 64 | 1018.1 |
| 20260507090133 | 56 | 299 | 2.6 | 7.8 | 0.01 | 0.05 | 0.05 | 65 | 1018.2 |
| 20260507085702 | 55 | 353 | 3.5 | 4.3 | 0.00 | 0.04 | 0.05 | 65 | 1018.1 |
| 20260507085136 | 55 | 234 | 1.7 | 6.1 | 0.00 | 0.04 | 0.05 | 66 | 1018.1 |
| 20260507085028 | 54 | 261 | 1.7 | 6.1 | 0.00 | 0.00 | 0.00 | 67 | 1018.1 |
| 20260507084050 | 54 | 3 | 0.0 | 6.1 | 0.00 | 0.00 | 0.00 | 67 | 1018.2 |
| 20260507083659 | 53 | 355 | 3.5 | 5.2 | 0.00 | 0.04 | 0.05 | 68 | 1018.2 |
| 20260507083234 | 53 | 32 | 0.9 | 4.3 | 0.00 | 0.04 | 0.05 | 69 | 1018.3 |
| 20260507082525 | 53 | 290 | 0.0 | 3.5 | 0.00 | 0.00 | 0.00 | 69 | 1018.2 |
| 20260507082254 | 53 | 206 | 0.0 | 3.5 | 0.00 | 0.04 | 0.04 | 69 | 1018.3 |
| 20260507082229 | 52 | 264 | 0.0 | 3.5 | 0.00 | 0.04 | 0.04 | 70 | 1018.3 |
| 20260507081259 | 52 | 31 | 0.0 | 6.1 | 0.00 | 0.04 | 0.04 | 69 | 1018.3 |
| 20260507080741 | 52 | 292 | 2.6 | 4.3 | 0.00 | 0.04 | 0.04 | 69 | 1018.3 |
| 20260507080130 | 52 | 306 | 1.7 | 7.8 | 0.00 | 0.04 | 0.04 | 70 | 1018.5 |
| 20260507075627 | 52 | 316 | 1.7 | 5.2 | 0.00 | 0.04 | 0.04 | 71 | 1018.3 |
| 20260507075246 | 52 | 348 | 0.9 | 5.2 | 0.00 | 0.04 | 0.04 | 72 | 1018.3 |
| 20260507074748 | 52 | 348 | 1.7 | 3.5 | 0.01 | 0.04 | 0.04 | 73 | 1018.2 |
| 20260507074653 | 52 | 79 | 0.0 | 3.5 | 0.01 | 0.04 | 0.04 | 77 | 1018.3 |
| 20260507074130 | 52 | 302 | 0.0 | 3.5 | 0.01 | 0.04 | 0.04 | 77 | 1018.2 |
| 20260507073230 | 52 | 259 | 0.0 | 3.5 | 0.01 | 0.04 | 0.04 | 77 | 1018.2 |
| 20260507072740 | 52 | 237 | 0.0 | 3.5 | 0.01 | 0.04 | 0.04 | 77 | 1018.2 |
| 20260507072559 | 51 | 307 | 0.0 | 3.5 | 0.01 | 0.04 | 0.04 | 77 | 1018.2 |
| 20260507071748 | 51 | 351 | 1.7 | 3.5 | 0.01 | 0.04 | 0.04 | 77 | 1018.3 |
| 20260507071136 | 51 | 213 | 0.0 | 3.5 | 0.01 | 0.04 | 0.04 | 77 | 1018.3 |
| 20260507070759 | 51 | 240 | 0.0 | 3.5 | 0.01 | 0.04 | 0.04 | 78 | 1018.3 |
| 20260507070238 | 51 | 0 | 0.0 | 3.5 | 0.01 | 0.04 | 0.04 | 77 | 1018.2 |
| 20260507065646 | 51 | 299 | 1.7 | 3.5 | 0.00 | 0.02 | 0.04 | 77 | 1018.2 |
| 20260507065306 | 50 | 257 | 0.0 | 3.5 | 0.00 | 0.02 | 0.04 | 77 | 1018.1 |
| 20260507064734 | 50 | 231 | 0.9 | 4.3 | 0.00 | 0.02 | 0.02 | 77 | 1018.1 |
| 20260507064301 | 50 | 223 | 1.7 | 4.3 | 0.00 | 0.02 | 0.02 | 77 | 1018.1 |
| 20260507063710 | 50 | 243 | 0.0 | 3.5 | 0.00 | 0.02 | 0.02 | 77 | 1018.0 |
| 20260507063647 | 50 | 217 | 0.9 | 4.3 | 0.01 | 0.02 | 0.02 | 77 | 1018.1 |
| 20260507063417 | 50 | 230 | 2.6 | 4.3 | 0.01 | 0.02 | 0.02 | 77 | 1018.1 |
| 20260507062305 | 50 | 220 | 0.9 | 4.3 | 0.01 | 0.02 | 0.02 | 78 | 1017.9 |
| 20260507061702 | 50 | 24 | 0.0 | 2.6 | 0.01 | 0.02 | 0.02 | 78 | 1017.8 |
| 20260507061211 | 49 | 18 | 0.0 | 2.6 | 0.01 | 0.02 | 0.02 | 78 | 1017.8 |
| 20260507060802 | 49 | 130 | 0.0 | 0.9 | 0.01 | 0.02 | 0.02 | 79 | 1017.9 |
| 20260507060203 | 48 | 124 | 0.0 | 4.3 | 0.00 | 0.01 | 0.02 | 78 | 1017.8 |
| 20260507060145 | 49 | 124 | 0.0 | 2.6 | 0.01 | 0.02 | 0.02 | 79 | 1017.9 |
| 20260507055202 | 47 | 124 | 1.7 | 4.3 | 0.00 | 0.01 | 0.02 | 78 | 1017.8 |
| 20260507055153 | 47 | 85 | 0.0 | 0.0 | 0.00 | 0.01 | 0.02 | 77 | 1017.7 |
| 20260507054250 | 47 | 348 | 0.0 | 0.9 | 0.00 | 0.01 | 0.02 | 77 | 1017.6 |
| 20260507053641 | 47 | 347 | 0.0 | 1.7 | 0.00 | 0.01 | 0.01 | 77 | 1017.5 |
| 20260507053109 | 47 | 283 | 1.7 | 1.7 | 0.00 | 0.00 | 0.00 | 77 | 1017.3 |
| 20260507052634 | 47 | 274 | 0.0 | 1.7 | 0.00 | 0.01 | 0.01 | 77 | 1017.3 |
| 20260507052145 | 47 | 293 | 0.0 | 1.7 | 0.00 | 0.01 | 0.01 | 77 | 1017.3 |
| 20260507051651 | 47 | 292 | 0.0 | 1.7 | 0.00 | 0.01 | 0.01 | 77 | 1017.3 |
| 20260507051145 | 47 | 298 | 0.0 | 0.9 | 0.00 | 0.01 | 0.01 | 77 | 1017.4 |
| 20260507050721 | 47 | 298 | 0.0 | 0.0 | 0.00 | 0.01 | 0.01 | 77 | 1017.4 |
| 20260507050215 | 47 | 298 | 0.0 | 0.0 | 0.00 | 0.01 | 0.01 | 77 | 1017.3 |
| 20260507045748 | 47 | 298 | 0.0 | 0.0 | 0.00 | 0.01 | 0.01 | 77 | 1017.2 |
| 20260507045709 | 0 | 0.0 | 0.0 | 0.00 | 0.00 | 0.00 | 1017.2 | ||
| 20260507044736 | 47 | 288 | 0.0 | 2.6 | 0.00 | 0.00 | 0.00 | 77 | 1017.2 |
| 20260507044317 | 0 | 3 | 1.7 | 0.0 | 0.00 | 0.01 | 0.01 | 1017.1 | |
| 20260507043733 | 0 | 0.0 | 0.0 | 0.00 | 0.00 | 0.00 | 1017.1 | ||
| 20260507043622 | 46 | 348 | 0.9 | 0.9 | 0.00 | 0.01 | 0.01 | 77 | 1017.1 |
| 20260507042630 | 46 | 302 | 0.0 | 0.0 | 0.00 | 0.01 | 0.01 | 77 | 1017.1 |
| 20260507042140 | 47 | 302 | 0.0 | 0.9 | 0.01 | 0.01 | 0.01 | 77 | 1017.0 |
| 20260507041747 | 47 | 302 | 0.0 | 0.9 | 0.01 | 0.01 | 0.01 | 76 | 1017.0 |
| 20260507041159 | 47 | 302 | 0.0 | 2.6 | 0.01 | 0.01 | 0.01 | 76 | 1017.0 |
| 20260507040735 | 47 | 303 | 0.0 | 2.6 | 0.01 | 0.01 | 0.01 | 76 | 1016.9 |
| 20260507040038 | 47 | 353 | 0.0 | 3.5 | 0.00 | 0.00 | 0.00 | 77 | 1016.9 |
| 20260507035735 | 47 | 358 | 0.9 | 4.3 | 0.00 | 0.00 | 0.01 | 77 | 1016.9 |
| 20260507035225 | 47 | 357 | 1.7 | 4.3 | 0.00 | 0.00 | 0.01 | 77 | 1016.9 |
| 20260507034638 | 47 | 118 | 0.0 | 0.9 | 0.00 | 0.00 | 0.01 | 76 | 1016.9 |
| 20260507034205 | 47 | 118 | 0.0 | 0.0 | 0.00 | 0.00 | 0.01 | 76 | 1016.9 |
| 20260507033703 | 47 | 118 | 0.0 | 0.0 | 0.00 | 0.00 | 0.01 | 75 | 1016.9 |
| 20260507033152 | 47 | 118 | 0.0 | 1.7 | 0.00 | 0.00 | 0.01 | 75 | 1016.8 |
| 20260507032642 | 47 | 118 | 0.0 | 2.6 | 0.00 | 0.00 | 0.01 | 75 | 1016.8 |
| 20260507032140 | 47 | 120 | 0.0 | 2.6 | 0.00 | 0.00 | 0.00 | 75 | 1016.8 |
| 20260507031742 | 47 | 120 | 2.6 | 2.6 | 0.00 | 0.00 | 0.00 | 75 | 1016.8 |
| 20260507031659 | 47 | 121 | 0.0 | 2.6 | 0.00 | 0.00 | 0.00 | 75 | 1016.9 |
| 20260507030629 | 47 | 65 | 0.0 | 0.0 | 0.00 | 0.00 | 0.00 | 75 | 1016.8 |
| 20260507030438 | 47 | 63 | 0.0 | 0.0 | 0.00 | 0.00 | 0.00 | 75 | 1016.8 |